Wind_Speed
31 29 28 28 27 25 24 22 20 17 15 14 12 12 12 12 12 12 14 12 11 10 9 7 6 7 5 6 7 8 9 8 7 7 10 11 14 16 16 14 12 15 17
32 32 33 31 28 26 25 23 20 18 15 13 12 11 11 11 10 11 11 10 10 8 7 8 6 6 7 8 9 14 11 12 9 9 9 11 14 17 17 17 15 10 13
32 34 35 33 31 29 27 24 23 20 16 13 10 11 10 9 9 9 10 9 7 5 6 4 6 6 6 6 6 7 7 11 10 11 12 12 13 17 16 16 17 17 17
33 33 34 36 33 29 27 25 23 20 17 15 12 11 9 7 7 10 8 5 3 5 4 6 5 7 8 11 10 11 12 10 10 12 12 13 16 16 14 16 17 13 14
35 33 34 35 32 28 25 23 21 17 13 13 10 8 6 6 6 9 9 2 2 5 5 5 6 8 10 10 7 10 11 11 11 12 13 14 17 17 17 16 15 16 11
35 37 34 33 31 29 27 23 19 15 10 11 8 7 5 5 10 10 3 3 3 4 5 5 7 8 9 9 12 13 15 14 17 14 13 16 18 16 13 17 19 12 13
37 36 35 32 32 31 29 24 20 17 14 12 9 7 5 11 9 7 4 4 4 5 5 7 8 7 8 10 13 14 15 17 19 20 21 22 23 18 18 18 18 11 11
31 33 36 38 36 31 26 24 22 18 15 13 10 8 11 9 6 3 4 6 4 6 6 7 3 7 8 7 8 6 11 16 18 19 24 23 25 24 18 16 16 12 11
30 32 33 36 36 34 30 25 22 17 16 14 11 10 14 9 7 5 7 8 7 7 5 5 6 6 7 9 7 6 8 10 16 21 23 24 25 29 26 17 17 15 12
29 29 30 32 34 34 32 26 21 18 17 12 12 14 11 11 9 7 8 9 9 8 6 6 6 5 6 8 6 5 6 9 11 13 16 17 19 20 33 30 24 18 18
23 24 27 30 31 29 29 25 21 19 15 15 15 18 13 12 11 13 12 10 10 9 8 8 8 6 6 7 8 6 7 16 14 11 12 12 12 16 23 31 27 29 29
23 25 26 29 26 24 25 23 21 20 21 18 21 19 16 15 14 12 16 14 11 11 10 10 8 7 6 7 9 12 16 13 8 9 11 12 12 11 12 24 30 31 32
24 25 25 26 25 24 24 23 21 22 18 20 22 21 19 20 19 18 19 14 14 13 14 9 8 8 7 7 10 15 12 9 6 8 11 11 11 14 10 19 23 23 29
24 25 24 26 25 24 20 20 19 19 20 18 17 21 22 24 24 24 23 21 17 18 16 12 11 10 10 7 11 10 8 5 6 8 9 10 11 12 12 14 14 15 15
20 20 20 20 23 19 18 18 18 17 18 17 18 18 23 26 27 22 23 25 23 20 18 16 15 13 10 9 7 5 6 6 6 7 8 8 11 12 12 12 12 14 17
18 19 19 19 20 18 21 23 24 22 24 23 20 16 17 18 16 22 20 22 21 17 18 18 15 14 13 11 9 8 7 6 5 7 8 8 10 10 11 12 13 14 18
18 17 17 19 18 18 19 17 20 26 23 26 25 19 20 19 15 21 21 22 16 18 16 16 15 15 14 14 12 10 8 8 8 5 7 8 8 10 11 11 12 13 16
12 17 16 18 16 18 17 15 15 15 20 22 25 23 20 13 17 21 23 22 22 21 17 17 17 17 16 16 14 13 12 11 9 7 7 8 8 8 10 10 10 10 11
15 14 8 10 10 11 12 13 13 12 13 15 22 24 25 22 21 22 28 27 29 26 18 18 17 17 17 17 18 16 15 13 11 10 7 8 8 9 10 10 11 12 12
14 11 13 9 8 8 8 8 9 11 11 9 14 22 25 26 25 26 31 29 25 23 21 18 18 18 19 20 20 19 17 18 16 12 11 9 10 10 10 11 10 10 11
18 15 16 12 9 8 8 5 2 2 5 6 7 14 16 21 25 26 29 34 28 22 21 20 19 19 21 23 21 22 19 18 17 15 13 12 12 11 12 11 11 11 12
7 10 14 14 11 7 5 2 6 6 4 3 5 12 11 16 21 28 32 34 34 24 21 22 20 21 20 23 26 27 23 21 19 18 16 15 14 13 13 14 12 13 13
9 7 8 9 5 6 3 2 3 6 7 7 3 12 12 15 18 19 24 33 35 24 21 24 24 25 25 28 28 27 25 25 22 22 20 18 17 16 15 14 15 14 14
8 11 13 9 7 5 2 1 3 5 6 8 10 13 18 14 14 19 23 27 35 34 27 25 26 25 28 28 29 27 27 25 26 25 23 21 19 19 17 16 16 15 16
10 9 8 8 8 7 5 5 5 9 7 8 4 11 13 13 12 14 15 19 26 38 37 34 31 27 31 31 29 27 29 28 29 27 26 23 21 21 19 18 18 17 17
13 12 10 8 5 6 11 14 10 9 7 9 9 8 10 13 11 13 13 17 18 20 38 37 38 30 32 34 31 27 30 33 33 30 28 25 24 22 20 20 21 19 19
Wind_Direction
211 216 219 227 230 233 235 240 248 254 260 269 282 292 300 299 302 310 315 317 320 326 349 21 48 55 46 17 19 23 20 28 17 12 8 350 6 342 356 359 355 340 320
213 210 220 225 228 232 236 240 246 254 261 270 280 287 298 301 310 316 311 313 325 344 31 50 57 47 43 54 22 34 45 36 35 17 13 5 359 349 358 353 348 337 312
212 214 216 224 229 234 240 243 249 252 255 265 261 280 292 297 311 306 303 320 336 40 88 76 74 40 33 50 60 57 40 31 26 15 10 5 5 360 5 3 1 350 0
208 212 216 221 226 231 236 242 245 249 251 265 260 271 274 293 298 281 311 338 12 85 122 95 64 44 45 55 51 36 53 36 18 16 12 8 4 3 7 5 353 353 331
206 209 216 218 223 226 229 235 241 242 251 251 241 250 268 287 281 281 312 294 64 117 109 94 70 62 67 88 56 55 63 47 35 25 18 12 8 8 9 7 0 352 343
205 213 217 219 219 223 224 225 225 228 235 234 229 233 245 260 255 284 279 171 129 122 101 94 85 76 69 64 61 58 53 52 45 44 27 21 8 5 9 17 354 360 6
208 210 212 216 216 218 222 224 219 223 228 235 219 222 220 241 259 269 197 203 141 122 107 93 105 86 75 68 63 47 49 45 44 39 40 30 21 19 31 16 0 10 14
206 209 212 218 219 222 220 218 217 222 223 224 221 206 221 239 229 231 227 172 151 130 113 137 136 93 97 94 85 77 61 46 41 40 35 31 28 29 37 5 7 1 35
204 207 212 215 215 218 221 217 220 214 217 221 208 196 231 217 198 209 188 161 160 148 150 134 122 111 104 107 94 83 65 22 23 31 25 21 23 27 34 40 49 40 30
201 203 206 211 214 217 220 218 218 211 219 204 193 210 226 205 187 188 170 169 172 164 160 152 135 117 107 112 96 91 86 71 59 38 28 27 22 21 35 49 48 46 42
200 202 205 209 210 213 217 216 207 208 205 186 193 218 215 194 187 177 179 177 171 161 166 159 154 140 126 116 115 110 95 65 48 43 40 38 34 30 32 41 53 60 53
195 197 201 206 199 204 209 206 203 203 200 185 209 215 202 189 191 196 180 178 168 172 160 173 166 152 139 123 101 95 83 74 46 45 46 43 43 38 32 38 50 57 58
191 195 196 198 188 206 202 200 198 200 190 196 211 216 202 192 191 190 189 196 185 168 178 188 175 161 149 133 114 95 80 70 65 56 56 50 43 45 31 28 37 31 54
187 191 193 193 183 203 192 197 190 194 193 201 197 209 203 200 200 195 192 197 196 189 197 180 175 171 146 150 110 78 92 131 96 76 63 62 56 53 57 43 48 48 45
177 179 183 183 182 194 183 196 196 205 204 206 203 206 202 203 211 208 204 200 202 204 196 186 179 174 167 169 140 153 112 92 95 85 76 72 68 59 59 55 57 59 59
168 173 180 185 186 191 194 199 196 203 205 208 209 205 201 204 225 206 209 203 208 204 196 188 180 178 171 173 175 156 158 144 125 102 92 83 86 74 64 59 66 70 69
159 175 183 183 192 193 199 204 207 208 213 215 216 208 197 214 215 202 207 207 202 199 188 181 183 189 184 178 176 171 162 167 146 130 111 98 88 84 75 70 71 75 75
165 170 183 184 197 196 196 207 213 215 214 216 213 207 204 201 209 200 203 207 195 196 192 193 191 189 189 182 182 174 184 174 157 149 133 118 109 98 90 82 83 79 80
141 154 177 179 173 187 197 196 202 207 199 202 208 207 203 201 203 203 205 210 209 199 196 200 199 193 193 190 184 185 191 166 170 158 155 138 126 124 118 113 111 100 87
150 161 170 132 148 156 179 178 186 181 195 206 206 214 210 205 208 205 206 208 212 208 200 204 202 198 198 193 188 193 191 179 176 167 166 158 144 134 123 114 108 103 98
97 172 165 143 118 100 124 134 175 165 188 191 212 235 225 231 228 223 213 212 212 208 207 204 203 201 198 197 195 192 199 193 179 172 179 167 163 157 148 141 129 123 116
38 103 166 161 152 124 133 174 187 166 170 253 254 256 236 240 239 230 226 223 214 205 209 207 200 202 197 200 201 201 196 195 187 180 180 180 174 171 163 153 148 143 135
53 56 68 91 123 147 151 174 341 275 236 213 222 275 273 245 249 246 246 233 218 210 210 210 205 206 201 206 213 210 198 199 194 188 183 184 183 178 176 172 165 157 153
57 51 50 49 35 39 15 318 286 305 302 278 273 254 267 276 264 252 246 239 231 215 206 217 214 206 214 211 217 213 199 205 201 195 190 186 188 188 183 183 181 174 172
29 31 62 42 28 12 336 325 317 267 261 258 310 304 290 279 268 259 259 253 243 226 215 213 215 212 214 223 226 214 207 198 209 203 195 190 190 198 189 190 189 188 185
26 15 8 360 14 341 319 316 286 285 285 274 261 265 291 301 285 276 275 276 259 245 233 216 225 211 223 227 231 221 214 203 210 204 204 194 192 195 196 196 195 196 195
Height
1531 1535 1538 1541 1544 1547 1549 1551 1552 1553 1554 1555 1556 1556 1556 1554 1553 1552 1551 1548 1545 1543 1542 1540 1539 1538 1539 1538 1535 1534 1532 1530 1530 1529 1527 1524 1522 1517 1514 1512 1510 1506 1499
1525 1530 1533 1537 1540 1543 1545 1547 1549 1550 1552 1553 1554 1554 1554 1553 1552 1552 1550 1547 1545 1543 1542 1541 1541 1541 1540 1537 1536 1534 1532 1531 1531 1529 1527 1525 1522 1517 1515 1512 1508 1506 1502
1520 1524 1528 1532 1536 1539 1541 1544 1546 1548 1549 1551 1552 1552 1552 1552 1552 1551 1548 1546 1544 1543 1544 1543 1543 1541 1539 1537 1536 1534 1534 1533 1532 1531 1528 1525 1522 1518 1515 1513 1509 1503 1501
1513 1518 1522 1526 1531 1535 1538 1541 1542 1544 1546 1548 1549 1550 1550 1551 1551 1549 1547 1546 1544 1544 1544 1544 1543 1541 1540 1538 1537 1537 1536 1535 1533 1531 1529 1526 1522 1519 1515 1513 1509 1505 1501
1507 1512 1515 1521 1526 1531 1534 1537 1539 1541 1544 1545 1547 1549 1550 1551 1550 1548 1547 1546 1545 1544 1544 1544 1544 1543 1542 1540 1539 1537 1536 1535 1534 1533 1530 1527 1522 1518 1515 1513 1509 1505 1502
1502 1506 1511 1517 1522 1526 1530 1533 1535 1538 1541 1543 1545 1547 1549 1550 1548 1547 1546 1546 1545 1545 1545 1545 1545 1544 1543 1542 1541 1539 1538 1536 1534 1533 1532 1528 1523 1520 1517 1512 1510 1508 1505
1497 1503 1507 1512 1517 1522 1526 1529 1532 1535 1539 1540 1543 1545 1547 1545 1546 1546 1545 1545 1545 1545 1546 1545 1547 1546 1545 1544 1544 1542 1541 1540 1537 1536 1533 1529 1524 1519 1517 1513 1511 1509 1506
1495 1499 1503 1507 1513 1518 1521 1525 1528 1532 1535 1537 1539 1542 1544 1543 1544 1545 1545 1545 1546 1546 1547 1547 1548 1548 1548 1549 1548 1546 1544 1543 1541 1539 1535 1532 1528 1523 1519 1516 1512 1509 1507
1490 1494 1499 1503 1508 1513 1517 1521 1525 1529 1532 1534 1537 1540 1540 1541 1542 1544 1544 1545 1546 1547 1548 1548 1549 1549 1550 1549 1549 1549 1548 1546 1545 1542 1538 1535 1532 1527 1519 1515 1511 1510 1510
1485 1489 1494 1499 1504 1508 1512 1516 1522 1526 1529 1533 1535 1537 1537 1540 1541 1543 1544 1545 1545 1546 1548 1549 1549 1550 1550 1550 1551 1550 1550 1548 1548 1547 1543 1540 1537 1533 1527 1520 1516 1513 1510
1484 1487 1491 1495 1500 1505 1509 1513 1518 1523 1527 1531 1533 1534 1535 1538 1540 1542 1543 1545 1546 1547 1548 1549 1549 1550 1551 1551 1551 1551 1552 1550 1551 1552 1548 1547 1544 1539 1534 1528 1522 1517 1514
1480 1484 1488 1492 1497 1502 1507 1510 1515 1520 1524 1528 1529 1530 1533 1536 1538 1541 1542 1545 1546 1548 1549 1550 1549 1551 1552 1552 1552 1552 1553 1553 1556 1554 1551 1549 1546 1544 1541 1536 1531 1525 1520
1478 1482 1485 1490 1495 1499 1504 1508 1513 1517 1522 1524 1525 1527 1530 1533 1535 1538 1541 1544 1545 1547 1547 1547 1550 1551 1552 1553 1553 1554 1555 1557 1557 1556 1553 1550 1549 1547 1544 1541 1536 1533 1530
1474 1479 1484 1487 1493 1497 1503 1506 1512 1515 1519 1520 1522 1522 1525 1528 1531 1533 1537 1540 1543 1544 1546 1546 1547 1550 1552 1553 1555 1555 1557 1558 1558 1557 1556 1553 1552 1552 1550 1547 1545 1544 1540
1472 1477 1483 1487 1492 1496 1503 1507 1511 1513 1516 1517 1519 1519 1520 1522 1525 1529 1531 1535 1537 1541 1543 1545 1546 1549 1552 1553 1556 1557 1557 1558 1559 1559 1558 1557 1555 1555 1553 1552 1550 1548 1546
1472 1476 1482 1488 1491 1496 1499 1502 1505 1508 1511 1513 1515 1516 1519 1523 1525 1528 1532 1534 1535 1539 1542 1543 1547 1549 1550 1553 1556 1557 1558 1559 1560 1559 1559 1558 1557 1557 1556 1555 1554 1552 1549
1470 1476 1480 1485 1489 1493 1498 1501 1503 1504 1507 1510 1512 1514 1517 1519 1523 1527 1531 1531 1534 1538 1540 1543 1547 1550 1552 1552 1554 1557 1558 1559 1560 1561 1560 1560 1561 1559 1559 1559 1559 1557 1555
1470 1475 1478 1482 1485 1489 1494 1498 1502 1502 1503 1505 1508 1511 1514 1518 1521 1524 1529 1533 1534 1535 1539 1542 1543 1546 1550 1551 1554 1555 1557 1557 1559 1561 1562 1562 1562 1563 1562 1563 1562 1562 1560
1470 1475 1482 1482 1484 1488 1493 1495 1499 1502 1503 1502 1502 1507 1510 1514 1516 1520 1523 1527 1528 1531 1537 1540 1542 1544 1548 1549 1551 1554 1552 1556 1559 1561 1563 1563 1563 1563 1563 1563 1564 1565 1566
1471 1475 1483 1484 1485 1487 1492 1495 1497 1500 1500 1502 1501 1503 1507 1510 1513 1516 1521 1525 1527 1529 1533 1537 1540 1542 1545 1548 1549 1552 1553 1553 1555 1560 1561 1564 1564 1564 1566 1567 1568 1569 1570
1470 1483 1478 1484 1484 1484 1490 1494 1498 1497 1499 1502 1502 1501 1506 1509 1510 1513 1515 1519 1523 1527 1531 1534 1536 1539 1541 1545 1547 1547 1553 1553 1553 1557 1560 1562 1564 1566 1567 1568 1570 1571 1572
1484 1484 1483 1480 1480 1485 1490 1495 1496 1497 1500 1503 1502 1500 1504 1505 1507 1509 1511 1515 1519 1523 1528 1532 1533 1534 1537 1540 1542 1543 1546 1552 1553 1555 1558 1561 1563 1565 1567 1568 1571 1571 1573
1484 1486 1482 1474 1482 1481 1487 1492 1495 1498 1498 1499 1502 1499 1501 1503 1505 1506 1508 1510 1513 1520 1523 1525 1527 1527 1528 1532 1535 1538 1541 1547 1549 1552 1553 1558 1561 1564 1567 1569 1570 1572 1573
1482 1481 1475 1479 1481 1482 1489 1490 1492 1497 1495 1497 1498 1499 1499 1500 1501 1502 1504 1505 1509 1512 1517 1521 1522 1525 1524 1526 1529 1533 1537 1543 1546 1548 1551 1554 1559 1562 1565 1568 1570 1571 1572
1479 1479 1479 1484 1484 1485 1487 1487 1491 1496 1496 1499 1495 1497 1497 1496 1498 1499 1499 1501 1503 1504 1506 1510 1515 1520 1521 1520 1522 1527 1532 1537 1540 1544 1547 1551 1555 1558 1562 1565 1568 1570 1571
1484 1478 1472 1472 1473 1480 1482 1486 1494 1497 1494 1493 1493 1494 1495 1496 1495 1496 1495 1495 1496 1497 1500 1501 1506 1512 1516 1518 1520 1523 1526 1530 1534 1539 1542 1547 1549 1553 1560 1562 1564 1567 1569